User: anonymous   Login
Location: Unspecified
(0.0000°N, 0.0000°E)
Time: 22:07:24
(UTC+00:00)
Language:

APRIZESAT 2 (LATINSAT D) - Orbit

View from above orbital plane
View from above orbital plane
View from above satellite
View from above satellite

Ground track
Ground track

The orbit data is extracted from the following two-line orbital elements,

1 28366U 04025A   17268.21801620  .00000015  00000-0  18618-4 0  9994
2 28366  98.3310 178.9895 0108874 110.6803 250.6096 14.36613850693952
Epoch (UTC): 25 September 2017 05:13:56
Eccentricity: 0.0108874
inclination: 98.3310°
perigee height: 692 km
apogee height: 847 km
right ascension of ascending node: 178.9895°
argument of perigee: 110.6803°
revolutions per day: 14.36613850
mean anomaly at epoch: 250.6096°
orbit number at epoch: 69395

The dashed part of the orbit path shows where the satellite is in the earth's shadow,  

DLR